DW3128 Weather Reports


time (UTC)temp
C
wind
direction
speed
KPH
gust
KPH
rain 1hr
cm
rain 24hr
cm
rain mn
cm
humidity
%
barometer
mb
20260906225307 37 90 12.9 29.0 0.00 0.00 0.00 29 1008.7
20260906224804 37 97 9.7 25.7 0.00 0.00 0.00 29 1008.7
20260906224305 37 85 11.3 20.9 0.00 0.00 0.00 29 1008.7
20260906223805 37 89 6.4 14.5 0.00 0.00 0.00 30 1008.7
20260906223304 37 221 6.4 25.7 0.00 0.00 0.00 29 1008.8
20260906222306 37 151 9.7 20.9 0.00 0.00 0.00 31 1008.8
20260906221805 37 142 3.2 14.5 0.00 0.00 0.00 30 1008.8
20260906221304 37 78 9.7 24.1 0.00 0.00 0.00 29 1008.9
20260906220804 37 95 11.3 20.9 0.00 0.00 0.00 30 1008.9
20260906220304 37 90 4.8 12.9 0.00 0.00 0.00 29 1009.0
20260906215805 37 109 9.7 19.3 0.00 0.00 0.00 30 1009.1
20260906214304 37 145 3.2 9.7 0.00 0.00 0.00 30 1009.1
20260906213806 37 113 9.7 16.1 0.00 0.00 0.00 28 1009.2
20260906213305 37 133 9.7 20.9 0.00 0.00 0.00 29 1009.4
20260906212306 37 142 9.7 24.1 0.00 0.00 0.00 33 1009.4
20260906211805 36 149 11.3 19.3 0.00 0.00 0.00 32 1009.4
20260906211304 36 151 8.0 16.1 0.00 0.00 0.00 32 1009.5
20260906210305 37 87 9.7 25.7 0.00 0.00 0.00 30 1009.8
20260906205804 36 116 9.7 19.3 0.00 0.00 0.00 31 1009.7
20260906205306 36 77 11.3 19.3 0.00 0.00 0.00 31 1009.8
20260906204804 36 1 9.7 19.3 0.00 0.00 0.00 32 1009.8
20260906204304 36 123 9.7 19.3 0.00 0.00 0.00 33 1009.8
20260906203805 36 148 12.9 19.3 0.00 0.00 0.00 32 1009.9
20260906203305 37 107 9.7 19.3 0.00 0.00 0.00 30 1010.0
20260906202805 37 106 8.0 24.1 0.00 0.00 0.00 31 1010.0
20260906202306 37 116 4.8 12.9 0.00 0.00 0.00 32 1010.0
20260906201805 37 103 9.7 20.9 0.00 0.00 0.00 32 1010.0
20260906201305 37 152 9.7 19.3 0.00 0.00 0.00 31 1010.1
20260906200804 37 141 12.9 24.1 0.00 0.00 0.00 33 1010.2
20260906200304 36 109 8.0 19.3 0.00 0.00 0.00 34 1010.2
20260906195804 36 97 19.3 24.1 0.00 0.00 0.00 34 1010.3
20260906195306 36 64 4.8 19.3 0.00 0.00 0.00 32 1010.2
20260906194804 36 72 11.3 24.1 0.00 0.00 0.00 32 1010.3
20260906194305 37 82 22.5 32.2 0.00 0.00 0.00 31 1010.3
20260906193804 37 148 12.9 19.3 0.00 0.00 0.00 34 1010.3
20260906193304 36 106 11.3 19.3 0.00 0.00 0.00 33 1010.4
20260906192805 36 90 9.7 24.1 0.00 0.00 0.00 32 1010.5
20260906192306 36 107 6.4 19.3 0.00 0.00 0.00 33 1010.5
20260906191804 36 91 9.7 19.3 0.00 0.00 0.00 33 1010.7
20260906190304 36 117 11.3 24.1 0.00 0.00 0.00 34 1010.8
20260906185804 36 87 16.1 25.7 0.00 0.00 0.00 34 1010.9
20260906185306 36 69 9.7 19.3 0.00 0.00 0.00 33 1010.9
20260906184304 35 77 4.8 16.1 0.00 0.00 0.00 36 1010.9
20260906183805 35 21 8.0 16.1 0.00 0.00 0.00 36 1011.1
20260906183304 36 139 12.9 24.1 0.00 0.00 0.00 35 1011.1
20260906182805 35 68 8.0 19.3 0.00 0.00 0.00 35 1011.1
20260906181804 35 94 9.7 16.1 0.00 0.00 0.00 39 1011.3
20260906181305 35 119 6.4 19.3 0.00 0.00 0.00 37 1011.4
20260906180804 35 103 6.4 19.3 0.00 0.00 0.00 37 1011.5
20260906180304 35 128 11.3 19.3 0.00 0.00 0.00 38 1011.6
20260906175804 35 104 11.3 14.5 0.00 0.00 0.00 38 1011.6
20260906175306 35 55 9.7 20.9 0.00 0.00 0.00 37 1011.7
20260906174804 35 115 6.4 25.7 0.00 0.00 0.00 37 1011.7
20260906174304 35 155 14.5 25.7 0.00 0.00 0.00 39 1011.9
20260906173305 35 118 8.0 12.9 0.00 0.00 0.00 39 1012.0
20260906172306 35 130 12.9 19.3 0.00 0.00 0.00 37 1012.1
20260906171305 35 166 9.7 16.1 0.00 0.00 0.00 38 1012.3
20260906170804 35 111 11.3 20.9 0.00 0.00 0.00 38 1012.5
20260906165804 35 127 8.0 11.3 0.00 0.00 0.00 42 1012.5
20260906165306 35 127 6.4 12.9 0.00 0.00 0.00 40 1012.6
20260906164804 35 155 6.4 19.3 0.00 0.00 0.00 39 1012.6
20260906163804 34 156 11.3 19.3 0.00 0.00 0.00 40 1012.7
20260906163304 34 136 6.4 14.5 0.00 0.00 0.00 42 1012.6
20260906162804 34 122 9.7 19.3 0.00 0.00 0.00 42 1012.7
20260906161804 33 322 1.6 9.7 0.00 0.00 0.00 40 1012.6
20260906161304 33 76 9.7 19.3 0.00 0.00 0.00 42 1012.6
20260906160804 33 94 9.7 14.5 0.00 0.00 0.00 44 1012.6
20260906160304 33 22 8.0 14.5 0.00 0.00 0.00 45 1012.5
20260906155804 33 185 3.2 8.0 0.00 0.00 0.00 45 1012.6
20260906155306 33 152 4.8 9.7 0.00 0.00 0.00 47 1012.5
20260906154805 32 43 8.0 14.5 0.00 0.00 0.00 46 1012.6
20260906154304 33 349 8.0 9.7 0.00 0.00 0.00 46 1012.6
20260906153804 32 90 1.6 8.0 0.00 0.00 0.00 49 1012.6
20260906153305 32 94 3.2 4.8 0.00 0.00 0.00 51 1012.6
20260906152803 32 152 3.2 9.7 0.00 0.00 0.00 52 1012.5
20260906151804 31 159 4.8 9.7 0.00 0.00 0.00 55 1012.5
20260906151304 31 132 4.8 8.0 0.00 0.00 0.00 55 1012.5
20260906150804 31 159 3.2 9.7 0.00 0.00 0.00 56 1012.5
20260906150304 30 196 4.8 4.8 0.00 0.00 0.00 57 1012.4
20260906145804 30 181 1.6 9.7 0.00 0.00 0.00 58 1012.3
20260906145306 30 158 6.4 9.7 0.00 0.00 0.00 60 1012.3
20260906143804 28 84 4.8 9.7 0.00 0.00 0.00 64 1012.3
20260906142306 27 153 1.6 8.0 0.00 0.00 0.00 70 1012.3
20260906140804 26 147 4.8 8.0 0.00 0.00 0.00 75 1012.4
20260906135804 25 140 1.6 4.8 0.00 0.00 0.00 77 1012.3
20260906135306 25 107 1.6 4.8 0.00 0.00 0.00 78 1012.3
20260906134805 25 130 4.8 9.7 0.00 0.00 0.00 78 1012.4
20260906134304 25 147 1.6 4.8 0.00 0.00 0.00 80 1012.3
20260906133805 24 84 3.2 4.8 0.00 0.00 0.00 81 1012.3
20260906133305 24 99 3.2 4.8 0.00 0.00 0.00 82 1012.2
20260906132805 23 110 0.0 0.0 0.00 0.00 0.00 83 1012.2
20260906132306 23 110 1.6 4.8 0.00 0.00 0.00 83 1012.2
20260906131803 23 110 0.0 3.2 0.00 0.00 0.00 83 1012.2
20260906131304 23 110 0.0 3.2 0.00 0.00 0.00 83 1012.2
20260906130805 22 110 0.0 1.6 0.00 0.00 0.00 83 1012.3
20260906130304 22 110 0.0 0.0 0.00 0.00 0.00 83 1012.3
20260906125306 22 110 0.0 0.0 0.00 0.00 0.00 83 1012.1
20260906124804 22 110 0.0 0.0 0.00 0.00 0.00 82 1012.0
20260906124304 22 110 0.0 0.0 0.00 0.00 0.00 82 1011.9
20260906123804 22 110 0.0 0.0 0.00 0.00 0.00 82 1012.0
20260906123304 22 110 0.0 0.0 0.00 0.00 0.00 82 1012.0
20260906122306 22 110 0.0 1.6 0.00 0.00 0.00 82 1011.9
20260906121803 22 110 0.0 0.0 0.00 0.00 0.00 82 1011.8
20260906121304 22 110 0.0 1.6 0.00 0.00 0.00 82 1011.8
20260906120804 22 110 0.0 0.0 0.00 0.00 0.00 82 1011.7
20260906120303 22 110 0.0 0.0 0.00 0.00 0.00 82 1011.7
20260906115804 22 110 0.0 0.0 0.00 0.00 0.00 82 1011.6
20260906115306 22 110 0.0 1.6 0.00 0.00 0.00 82 1011.5
20260906114804 22 110 0.0 0.0 0.00 0.00 0.00 81 1011.4
20260906114305 22 110 0.0 0.0 0.00 0.00 0.00 82 1011.3
20260906113804 22 110 0.0 1.6 0.00 0.00 0.00 81 1011.3
20260906113304 22 110 0.0 0.0 0.00 0.00 0.00 81 1011.3
20260906112804 22 110 0.0 0.0 0.00 0.00 0.00 81 1011.3
20260906111303 22 110 0.0 0.0 0.00 0.00 0.00 82 1010.9
20260906110804 23 110 0.0 0.0 0.00 0.00 0.00 81 1011.0
20260906104804 23 110 0.0 0.0 0.00 0.00 0.00 81 1011.0
20260906104304 23 110 0.0 0.0 0.00 0.00 0.00 81 1011.0
20260906103804 23 110 0.0 0.0 0.00 0.00 0.00 81 1011.0
20260906102804 23 110 0.0 0.0 0.00 0.00 0.00 81 1011.0
20260906102306 23 110 0.0 0.0 0.00 0.00 0.00 82 1011.0
20260906101803 23 110 0.0 0.0 0.00 0.00 0.00 82 1010.9
20260906101304 23 110 0.0 0.0 0.00 0.00 0.00 82 1010.9
20260906100803 23 110 0.0 0.0 0.00 0.00 0.00 81 1010.9
20260906095805 23 110 0.0 0.0 0.00 0.00 0.00 80 1010.7
20260906095306 23 110 0.0 0.0 0.00 0.00 0.00 80 1010.7
20260906094804 23 110 0.0 0.0 0.00 0.00 0.00 80 1010.7
20260906094305 23 110 0.0 0.0 0.00 0.00 0.00 80 1010.7
20260906093804 23 110 0.0 0.0 0.00 0.00 0.00 80 1010.7
20260906093303 23 110 0.0 0.0 0.00 0.00 0.00 80 1010.6
20260906092804 23 110 0.0 0.0 0.00 0.00 0.00 79 1010.4
20260906092306 23 110 0.0 0.0 0.00 0.00 0.00 79 1010.4
20260906091804 23 110 0.0 0.0 0.00 0.00 0.00 79 1010.4
20260906091303 23 110 0.0 0.0 0.00 0.00 0.00 78 1010.4
20260906090804 23 110 0.0 0.0 0.00 0.00 0.00 79 1010.3
20260906090304 23 110 0.0 1.6 0.00 0.00 0.00 79 1010.3
20260906085804 23 110 1.6 3.2 0.00 0.00 0.00 79 1010.1
20260906085306 23 110 1.6 3.2 0.00 0.00 0.00 79 1010.0
20260906084804 23 110 0.0 0.0 0.00 0.00 0.00 79 1010.1
20260906083804 23 110 1.6 1.6 0.00 0.00 0.00 78 1010.1
20260906082306 23 110 1.6 3.2 0.00 0.00 0.00 78 1010.2
20260906081804 23 110 1.6 3.2 0.00 0.00 0.00 79 1010.3
20260906081304 23 110 0.0 1.6 0.00 0.00 0.00 79 1010.4
20260906080803 23 110 0.0 0.0 0.00 0.00 0.00 78 1010.4
20260906080303 23 110 0.0 0.0 0.00 0.00 0.00 78 1010.6
20260906075804 24 110 1.6 3.2 0.00 0.00 0.00 78 1010.6
20260906075306 24 110 3.2 3.2 0.00 0.00 0.00 78 1010.7
20260906074803 24 110 0.0 3.2 0.00 0.00 0.00 78 1010.8
20260906074304 24 110 0.0 3.2 0.00 0.00 0.00 78 1010.8
20260906073804 24 110 0.0 0.0 0.00 0.00 0.00 77 1010.8
20260906073303 24 110 0.0 0.0 0.00 0.00 0.00 77 1010.7
20260906072804 24 110 0.0 0.0 0.00 0.00 0.00 77 1010.7
20260906072306 24 110 0.0 0.0 0.00 0.00 0.00 76 1010.7
20260906071804 25 110 0.0 0.0 0.00 0.00 0.00 76 1010.6
20260906070804 25 110 1.6 1.6 0.00 0.00 0.00 74 1010.5
20260906070304 25 110 1.6 3.2 0.00 0.00 0.00 73 1010.6
20260906065305 26 110 0.0 1.6 0.00 0.00 0.00 71 1010.7
20260906064804 26 110 0.0 1.6 0.00 0.00 0.00 70 1010.8
20260906064304 26 110 0.0 0.0 0.00 0.00 0.00 67 1010.9
20260906063804 27 110 0.0 0.0 0.00 0.00 0.00 66 1010.8
20260906063304 27 110 0.0 0.0 0.00 0.00 0.00 64 1010.9
20260906062804 27 110 0.0 0.0 0.00 0.00 0.00 64 1010.9
20260906061804 27 110 0.0 3.2 0.00 0.00 0.00 62 1011.1
20260906061305 27 110 1.6 1.6 0.00 0.00 0.00 61 1011.0
20260906060803 27 110 0.0 1.6 0.00 0.00 0.00 62 1011.0
20260906060304 27 110 0.0 3.2 0.00 0.00 0.00 62 1011.0
20260906055813 27 110 1.6 3.2 0.00 0.00 0.00 61 1011.1
20260906055313 27 110 0.0 0.0 0.00 0.00 0.00 61 1011.0
20260906054813 27 110 0.0 1.6 0.00 0.00 0.00 60 1011.2
20260906054314 27 110 1.6 3.2 0.00 0.00 0.00 59 1011.2
20260906053813 28 110 0.0 1.6 0.00 0.00 0.00 59 1011.1
20260906052813 28 110 0.0 1.6 0.00 0.00 0.00 59 1011.1
20260906052313 28 110 0.0 1.6 0.00 0.00 0.00 59 1011.1
20260906051813 28 110 0.0 3.2 0.00 0.00 0.00 57 1011.1
20260906051313 28 110 1.6 4.8 0.00 0.00 0.00 57 1011.1
20260906050313 28 125 1.6 3.2 0.00 0.00 0.00 57 1011.0
20260906045813 28 125 1.6 3.2 0.00 0.00 0.00 57 1011.1
20260906045314 28 125 0.0 4.8 0.00 0.00 0.00 56 1011.0
20260906043313 29 140 3.2 9.7 0.00 0.00 0.00 54 1010.9
20260906042813 30 139 4.8 11.3 0.00 0.00 0.00 54 1010.9
20260906042313 30 130 3.2 8.0 0.00 0.00 0.00 54 1010.8
20260906041813 30 117 1.6 8.0 0.00 0.00 0.00 53 1010.8
20260906041313 30 126 3.2 11.3 0.00 0.00 0.00 53 1010.7
20260906040812 30 113 4.8 11.3 0.00 0.00 0.00 53 1010.7
20260906040312 30 111 3.2 8.0 0.00 0.00 0.00 52 1010.8
20260906035813 30 123 8.0 11.3 0.00 0.00 0.00 52 1010.8
20260906035313 30 129 4.8 9.7 0.00 0.00 0.00 52 1010.8
20260906034813 30 120 8.0 11.3 0.00 0.00 0.00 51 1010.9
20260906033812 30 109 4.8 11.3 0.00 0.00 0.00 50 1010.8
20260906033313 31 116 8.0 14.5 0.00 0.00 0.00 49 1010.8
20260906032812 31 134 9.7 14.5 0.00 0.00 0.00 49 1010.8
20260906031313 31 131 9.7 16.1 0.00 0.00 0.00 47 1010.8
20260906030313 31 117 3.2 14.5 0.00 0.00 0.00 46 1010.6
20260906025812 31 162 4.8 9.7 0.00 0.00 0.00 46 1010.6
20260906025313 31 134 8.0 12.9 0.00 0.00 0.00 46 1010.7
20260906024813 31 133 6.4 12.9 0.00 0.00 0.00 45 1010.6
20260906024313 32 151 8.0 16.1 0.00 0.00 0.00 45 1010.5
20260906023312 32 110 8.0 16.1 0.00 0.00 0.00 43 1010.3
20260906022812 32 112 11.3 24.1 0.00 0.00 0.00 42 1010.3
20260906022313 32 104 9.7 24.1 0.00 0.00 0.00 41 1010.2
20260906021812 32 119 9.7 16.1 0.00 0.00 0.00 40 1010.2
20260906021313 32 156 14.5 25.7 0.00 0.00 0.00 40 1010.1
20260906020313 33 115 1.6 4.8 0.00 0.00 0.00 39 1009.8
20260906015313 33 116 4.8 8.0 0.00 0.00 0.00 37 1009.5
20260906014813 33 131 3.2 8.0 0.00 0.00 0.00 37 1009.5
20260906014313 33 133 4.8 11.3 0.00 0.00 0.00 36 1009.4
20260906013813 33 77 4.8 4.8 0.00 0.00 0.00 36 1009.4
20260906013312 33 135 3.2 4.8 0.00 0.00 0.00 36 1009.3
20260906012812 33 97 4.8 8.0 0.00 0.00 0.00 35 1009.2
20260906012313 33 75 1.6 3.2 0.00 0.00 0.00 35 1009.1
20260906011813 33 74 3.2 3.2 0.00 0.00 0.00 34 1009.0
20260906011312 33 74 1.6 3.2 0.00 0.00 0.00 34 1008.9
20260906010813 34 74 1.6 4.8 0.00 0.00 0.00 33 1008.9
20260906010313 34 110 1.6 4.8 0.00 0.00 0.00 33 1008.9
20260906005313 35 111 1.6 4.8 0.00 0.00 0.00 32 1008.9
20260906004313 35 99 6.4 11.3 0.00 0.00 0.00 32 1008.9
20260906003813 35 103 4.8 11.3 0.00 0.00 0.00 32 1008.8
20260906003314 35 78 4.8 16.1 0.00 0.00 0.00 32 1008.8
20260906002813 35 116 3.2 9.7 0.00 0.00 0.00 31 1008.9
20260906001812 36 95 4.8 14.5 0.00 0.00 0.00 30 1008.8
20260906001313 36 130 6.4 14.5 0.00 0.00 0.00 30 1008.7
20260906000812 36 124 9.7 19.3 0.00 0.00 0.00 30 1008.7
20260906000312 36 121 4.8 9.7 0.00 0.00 0.00 30 1008.6
20260905235313 36 146 9.7 14.5 0.00 0.00 0.00 29 1008.6
20260905234812 36 145 8.0 14.5 0.00 0.00 0.00 29 1008.6
20260905234313 36 144 11.3 14.5 0.00 0.00 0.00 29 1008.6
20260905233813 37 144 6.4 14.5 0.00 0.00 0.00 28 1008.5
20260905233313 37 104 9.7 19.3 0.00 0.00 0.00 28 1008.5
20260905231812 37 101 9.7 12.9 0.00 0.00 0.00 28 1008.5
20260905231312 37 154 9.7 16.1 0.00 0.00 0.00 28 1008.5
20260905230313 37 98 9.7 19.3 0.00 0.00 0.00 28 1008.5
20260905225813 37 103 6.4 16.1 0.00 0.00 0.00 27 1008.4